DAL408 KFLL-KEYW

Flight info

Callsign DAL408
Flight time 0h 38m
Altitude 20000
Route MAYNR3 MAYNR FNTSY FNTSY1
Aircraft A319/M-SDE3FGHIRWY/LB1

Departure

Time 2026-05-03 23:15
Airport Fort Lauderdale Hollywood International Airport (KFLL)

Arrival

Time 2026-05-03 23:54
Airport Key West International Airport (KEYW)
Time Latitude Longitude Altitude Speed Heading
2026-05-03 22:31 26.07337 -80.14418 16 ft 0 kts 102°
2026-05-03 22:31 26.07338 -80.14419 16 ft 0 kts 102°
2026-05-03 22:42 26.07341 -80.14437 16 ft 4 kts 96°
2026-05-03 22:42 26.07341 -80.14466 16 ft 4 kts 75°
2026-05-03 22:43 26.07329 -80.14489 18 ft 4 kts 22°
2026-05-03 22:43 26.07321 -80.14492 19 ft 0 kts 360°
2026-05-03 22:47 26.07323 -80.14492 19 ft 1 kts
2026-05-03 22:47 26.07339 -80.14492 16 ft 3 kts
2026-05-03 22:47 26.07357 -80.14492 18 ft 0 kts 359°
2026-05-03 22:48 26.07358 -80.14492 18 ft 1 kts 357°
2026-05-03 22:48 26.07359 -80.14494 18 ft 0 kts 334°
2026-05-03 22:48 26.07362 -80.14494 17 ft 0 kts 346°
2026-05-03 22:49 26.07364 -80.14497 16 ft 1 kts 324°
2026-05-03 22:49 26.07372 -80.14515 16 ft 6 kts 301°
2026-05-03 22:49 26.07413 -80.14541 16 ft 7 kts 358°
2026-05-03 22:50 26.07449 -80.14536 16 ft 6 kts 18°
2026-05-03 22:50 26.07491 -80.14519 16 ft 7 kts 17°
2026-05-03 22:50 26.07537 -80.14516 17 ft 7 kts 346°
2026-05-03 22:50 26.07556 -80.14555 17 ft 6 kts 275°
2026-05-03 22:51 26.07558 -80.14609 17 ft 8 kts 273°
2026-05-03 22:51 26.07559 -80.14693 17 ft 13 kts 272°
2026-05-03 22:51 26.07561 -80.14800 17 ft 14 kts 271°
2026-05-03 22:51 26.07562 -80.14906 16 ft 13 kts 270°
2026-05-03 22:52 26.07563 -80.15005 16 ft 13 kts 271°
2026-05-03 22:52 26.07552 -80.15104 16 ft 13 kts 240°
2026-05-03 22:52 26.07473 -80.15126 16 ft 12 kts 178°
2026-05-03 22:52 26.07388 -80.15126 16 ft 13 kts 181°
2026-05-03 22:53 26.07298 -80.15127 16 ft 13 kts 180°
2026-05-03 22:53 26.07205 -80.15127 16 ft 13 kts 181°
2026-05-03 22:53 26.07119 -80.15127 16 ft 12 kts 180°
2026-05-03 22:53 26.07033 -80.15129 16 ft 12 kts 180°
2026-05-03 22:54 26.06945 -80.15130 16 ft 13 kts 181°
2026-05-03 22:54 26.06856 -80.15130 16 ft 13 kts 180°
2026-05-03 22:54 26.06780 -80.15131 16 ft 0 kts 181°
2026-05-03 22:55 26.06719 -80.15135 16 ft 11 kts 196°
2026-05-03 22:55 26.06695 -80.15201 16 ft 9 kts 271°
2026-05-03 22:55 26.06696 -80.15271 16 ft 8 kts 270°
2026-05-03 22:55 26.06696 -80.15331 16 ft 7 kts 269°
2026-05-03 22:56 26.06696 -80.15373 16 ft 3 kts 270°
2026-05-03 22:56 26.06696 -80.15393 16 ft 2 kts 271°
2026-05-03 22:56 26.06697 -80.15408 16 ft 0 kts 270°
2026-05-03 22:57 26.06697 -80.15411 16 ft 1 kts 270°
2026-05-03 22:58 26.06697 -80.15433 16 ft 4 kts 270°
2026-05-03 22:58 26.06697 -80.15458 16 ft 0 kts 270°
2026-05-03 22:58 26.06697 -80.15459 16 ft 0 kts 270°
2026-05-03 22:59 26.06697 -80.15469 16 ft 2 kts 271°
2026-05-03 22:59 26.06697 -80.15492 16 ft 4 kts 270°
2026-05-03 22:59 26.06697 -80.15518 16 ft 3 kts 271°
2026-05-03 22:59 26.06697 -80.15534 16 ft 1 kts 270°
2026-05-03 23:00 26.06697 -80.15545 16 ft 1 kts 270°
2026-05-03 23:00 26.06697 -80.15548 16 ft 0 kts 270°
2026-05-03 23:01 26.06697 -80.15549 16 ft 1 kts 270°
2026-05-03 23:02 26.06697 -80.15559 25 ft 2 kts 270°
2026-05-03 23:02 26.06697 -80.15581 14 ft 3 kts 270°
2026-05-03 23:02 26.06697 -80.15587 16 ft 0 kts 269°
2026-05-03 23:03 26.06697 -80.15592 16 ft 1 kts 269°
2026-05-03 23:03 26.06697 -80.15606 16 ft 2 kts 269°
2026-05-03 23:04 26.06697 -80.15629 16 ft 3 kts 271°
2026-05-03 23:04 26.06698 -80.15654 16 ft 0 kts 271°
2026-05-03 23:06 26.06698 -80.15655 16 ft 0 kts 271°
2026-05-03 23:06 26.06698 -80.15663 16 ft 2 kts 271°
2026-05-03 23:06 26.06698 -80.15679 16 ft 3 kts 271°
2026-05-03 23:06 26.06698 -80.15695 16 ft 1 kts 271°
2026-05-03 23:07 26.06698 -80.15698 16 ft 0 kts 271°
2026-05-03 23:08 26.06698 -80.15699 16 ft 0 kts 271°
2026-05-03 23:09 26.06698 -80.15700 16 ft 0 kts 271°
2026-05-03 23:11 26.06699 -80.15705 16 ft 1 kts 271°
2026-05-03 23:11 26.06699 -80.15708 16 ft 0 kts 271°
2026-05-03 23:11 26.06699 -80.15709 16 ft 1 kts 271°
2026-05-03 23:12 26.06698 -80.15722 17 ft 2 kts 269°
2026-05-03 23:12 26.06698 -80.15744 16 ft 3 kts 270°
2026-05-03 23:12 26.06698 -80.15760 16 ft 2 kts 270°
2026-05-03 23:12 26.06698 -80.15762 16 ft 0 kts 270°
2026-05-03 23:13 26.06698 -80.15767 16 ft 2 kts 270°
2026-05-03 23:13 26.06698 -80.15782 16 ft 2 kts 270°
2026-05-03 23:13 26.06695 -80.15807 16 ft 4 kts 250°
2026-05-03 23:13 26.06667 -80.15821 16 ft 6 kts 183°
2026-05-03 23:14 26.06624 -80.15821 17 ft 7 kts 180°
2026-05-03 23:14 26.06588 -80.15810 18 ft 4 kts 110°
2026-05-03 23:14 26.06589 -80.15799 18 ft 0 kts 90°
2026-05-03 23:14 26.06588 -80.15692 22 ft 48 kts 90°
2026-05-03 23:15 26.06585 -80.15022 25 ft 122 kts 90°
2026-05-03 23:15 26.06582 -80.13900 283 ft 153 kts 87°
2026-05-03 23:15 26.06594 -80.12730 959 ft 152 kts 86°
2026-05-03 23:15 26.06614 -80.11537 1568 ft 161 kts 86°
2026-05-03 23:16 26.06637 -80.10211 1985 ft 184 kts 87°
2026-05-03 23:16 26.06624 -80.08678 2358 ft 211 kts 96°
2026-05-03 23:16 26.05942 -80.07141 2781 ft 239 kts 137°
2026-05-03 23:16 26.04404 -80.06321 3272 ft 261 kts 175°
2026-05-03 23:17 26.02595 -80.06595 4102 ft 265 kts 200°
2026-05-03 23:17 26.00878 -80.07336 5177 ft 265 kts 207°
2026-05-03 23:17 25.99209 -80.08219 6202 ft 267 kts 210°
2026-05-03 23:17 25.97558 -80.09122 7165 ft 269 kts 209°
2026-05-03 23:18 25.95862 -80.10024 8099 ft 273 kts 208°
2026-05-03 23:18 25.94122 -80.10914 9037 ft 276 kts 208°
2026-05-03 23:18 25.92355 -80.11784 9975 ft 280 kts 207°
2026-05-03 23:18 25.90515 -80.12671 10491 ft 299 kts 206°
2026-05-03 23:19 25.88530 -80.13617 10817 ft 322 kts 206°
2026-05-03 23:19 25.86433 -80.14604 11456 ft 331 kts 206°
2026-05-03 23:19 25.84299 -80.15603 12232 ft 335 kts 206°
2026-05-03 23:19 25.82140 -80.16613 13019 ft 339 kts 206°
2026-05-03 23:20 25.79957 -80.17634 13792 ft 343 kts 206°
2026-05-03 23:20 25.77752 -80.18668 14477 ft 346 kts 206°
2026-05-03 23:20 25.75529 -80.19710 15168 ft 348 kts 206°
2026-05-03 23:20 25.73285 -80.20765 15746 ft 351 kts 206°
2026-05-03 23:21 25.71035 -80.21822 15943 ft 351 kts 206°
2026-05-03 23:21 25.68790 -80.22876 16008 ft 350 kts 206°
2026-05-03 23:21 25.66531 -80.23937 16489 ft 354 kts 207°
2026-05-03 23:21 25.64254 -80.25005 17210 ft 356 kts 207°
2026-05-03 23:22 25.59662 -80.27154 18514 ft 361 kts 207°
2026-05-03 23:22 25.57339 -80.28239 19099 ft 364 kts 207°
2026-05-03 23:22 25.54994 -80.29334 19674 ft 366 kts 207°
2026-05-03 23:23 25.52645 -80.30435 19931 ft 367 kts 207°
2026-05-03 23:23 25.50297 -80.31537 20004 ft 367 kts 207°
2026-05-03 23:23 25.47948 -80.32639 20017 ft 366 kts 207°
2026-05-03 23:23 25.45601 -80.33737 20017 ft 366 kts 207°
2026-05-03 23:24 25.43250 -80.34832 20017 ft 366 kts 207°
2026-05-03 23:24 25.40900 -80.35926 20017 ft 366 kts 207°
2026-05-03 23:24 25.38556 -80.37019 20017 ft 366 kts 207°
2026-05-03 23:24 25.36207 -80.38115 20018 ft 366 kts 207°
2026-05-03 23:25 25.33858 -80.39210 20018 ft 366 kts 207°
2026-05-03 23:25 25.31512 -80.40303 20008 ft 367 kts 207°
2026-05-03 23:25 25.29155 -80.41400 20026 ft 367 kts 207°
2026-05-03 23:25 25.26799 -80.42499 20027 ft 368 kts 207°
2026-05-03 23:26 25.24445 -80.43596 20024 ft 367 kts 207°
2026-05-03 23:26 25.22020 -80.44532 20024 ft 371 kts 201°
2026-05-03 23:26 25.19581 -80.45330 20024 ft 371 kts 201°
2026-05-03 23:26 25.17106 -80.46137 20024 ft 371 kts 201°
2026-05-03 23:27 25.14627 -80.46946 20020 ft 371 kts 201°
2026-05-03 23:27 25.12158 -80.47754 20021 ft 371 kts 201°
2026-05-03 23:27 25.09679 -80.48567 20021 ft 371 kts 201°
2026-05-03 23:27 25.07208 -80.49381 20018 ft 371 kts 201°
2026-05-03 23:28 25.04732 -80.50195 19909 ft 373 kts 201°
2026-05-03 23:28 25.02235 -80.51011 19654 ft 375 kts 201°
2026-05-03 23:28 24.99735 -80.51825 19423 ft 375 kts 201°
2026-05-03 23:28 24.97235 -80.52636 19194 ft 374 kts 201°
2026-05-03 23:29 24.94745 -80.53443 18956 ft 373 kts 201°
2026-05-03 23:29 24.92256 -80.54251 18736 ft 371 kts 201°
2026-05-03 23:29 24.89784 -80.55057 18512 ft 370 kts 201°
2026-05-03 23:29 24.87337 -80.55909 18284 ft 366 kts 206°
2026-05-03 23:30 24.85141 -80.57258 18027 ft 360 kts 219°
2026-05-03 23:30 24.83348 -80.59144 17764 ft 355 kts 233°
2026-05-03 23:30 24.82046 -80.61425 17514 ft 352 kts 245°
2026-05-03 23:30 24.81288 -80.63980 17260 ft 352 kts 258°
2026-05-03 23:31 24.80974 -80.66651 17013 ft 352 kts 262°
2026-05-03 23:31 24.80683 -80.69321 16764 ft 351 kts 262°
2026-05-03 23:31 24.80383 -80.71986 16516 ft 350 kts 262°
2026-05-03 23:31 24.80080 -80.74642 16271 ft 350 kts 262°
2026-05-03 23:32 24.79776 -80.77294 16026 ft 349 kts 262°
2026-05-03 23:32 24.79473 -80.79938 15756 ft 346 kts 262°
2026-05-03 23:32 24.79175 -80.82548 15278 ft 342 kts 262°
2026-05-03 23:32 24.78877 -80.85139 14762 ft 341 kts 262°
2026-05-03 23:33 24.78583 -80.87718 14240 ft 339 kts 262°
2026-05-03 23:33 24.78291 -80.90290 13709 ft 338 kts 262°
2026-05-03 23:33 24.78000 -80.92850 13144 ft 336 kts 262°
2026-05-03 23:33 24.77713 -80.95358 12609 ft 333 kts 262°
2026-05-03 23:34 24.77422 -80.97881 12084 ft 331 kts 262°
2026-05-03 23:34 24.77109 -81.00374 11549 ft 328 kts 258°
2026-05-03 23:34 24.76432 -81.02753 10997 ft 326 kts 246°
2026-05-03 23:34 24.75320 -81.04922 10584 ft 322 kts 239°
2026-05-03 23:35 24.74164 -81.06962 10468 ft 307 kts 239°
2026-05-03 23:35 24.73068 -81.08924 10332 ft 294 kts 240°
2026-05-03 23:35 24.72019 -81.10808 10184 ft 284 kts 239°
2026-05-03 23:35 24.70999 -81.12640 10060 ft 279 kts 240°
2026-05-03 23:36 24.69990 -81.14455 9991 ft 278 kts 240°
2026-05-03 23:36 24.68974 -81.16278 9728 ft 280 kts 240°
2026-05-03 23:36 24.67954 -81.18102 9281 ft 280 kts 239°
2026-05-03 23:36 24.66937 -81.19919 8906 ft 277 kts 239°
2026-05-03 23:37 24.65930 -81.21723 8479 ft 276 kts 239°
2026-05-03 23:37 24.64920 -81.23514 8092 ft 275 kts 237°
2026-05-03 23:37 24.63722 -81.25122 7889 ft 270 kts 230°
2026-05-03 23:37 24.62494 -81.26678 7761 ft 269 kts 230°
2026-05-03 23:38 24.61270 -81.28232 7633 ft 268 kts 230°
2026-05-03 23:38 24.60052 -81.29780 7500 ft 267 kts 230°
2026-05-03 23:38 24.58839 -81.31325 7369 ft 266 kts 230°
2026-05-03 23:38 24.57633 -81.32866 7240 ft 266 kts 230°
2026-05-03 23:39 24.56430 -81.34405 7109 ft 266 kts 231°
2026-05-03 23:39 24.55433 -81.36102 6983 ft 264 kts 243°
2026-05-03 23:39 24.54592 -81.37901 6851 ft 265 kts 243°
2026-05-03 23:39 24.53747 -81.39692 6723 ft 263 kts 243°
2026-05-03 23:40 24.52903 -81.41474 6587 ft 264 kts 243°
2026-05-03 23:40 24.52058 -81.43255 6464 ft 263 kts 242°
2026-05-03 23:40 24.51212 -81.45039 6329 ft 263 kts 242°
2026-05-03 23:40 24.50370 -81.46813 6205 ft 262 kts 242°
2026-05-03 23:41 24.49531 -81.48581 6067 ft 261 kts 242°
2026-05-03 23:41 24.48689 -81.50352 5939 ft 260 kts 242°
2026-05-03 23:41 24.47854 -81.52112 5816 ft 260 kts 242°
2026-05-03 23:41 24.47028 -81.53878 5697 ft 261 kts 245°
2026-05-03 23:42 24.46521 -81.55778 5558 ft 260 kts 261°
2026-05-03 23:42 24.46449 -81.57758 5430 ft 260 kts 269°
2026-05-03 23:42 24.46440 -81.59750 5302 ft 261 kts 268°
2026-05-03 23:42 24.46424 -81.61741 5175 ft 260 kts 268°
2026-05-03 23:43 24.46405 -81.63696 5051 ft 259 kts 268°
2026-05-03 23:43 24.46386 -81.65620 4939 ft 245 kts 267°
2026-05-03 23:43 24.46370 -81.67438 4832 ft 230 kts 267°
2026-05-03 23:43 24.46355 -81.69132 4734 ft 215 kts 267°
2026-05-03 23:44 24.46337 -81.70734 4646 ft 209 kts 267°
2026-05-03 23:44 24.46318 -81.72347 4553 ft 212 kts 267°
2026-05-03 23:44 24.46299 -81.73971 4442 ft 213 kts 267°
2026-05-03 23:44 24.46281 -81.75604 4337 ft 215 kts 268°
2026-05-03 23:45 24.46264 -81.77251 4231 ft 216 kts 268°
2026-05-03 23:45 24.46248 -81.78892 4126 ft 214 kts 268°
2026-05-03 23:45 24.46234 -81.80520 4018 ft 213 kts 268°
2026-05-03 23:45 24.46221 -81.82144 3915 ft 213 kts 268°
2026-05-03 23:46 24.46205 -81.83767 3814 ft 212 kts 268°
2026-05-03 23:46 24.46187 -81.85384 3706 ft 211 kts 268°
2026-05-03 23:46 24.46168 -81.86995 3604 ft 212 kts 268°
2026-05-03 23:46 24.46149 -81.88617 3501 ft 213 kts 268°
2026-05-03 23:47 24.46130 -81.90235 3397 ft 211 kts 268°
2026-05-03 23:47 24.46112 -81.91849 3295 ft 212 kts 269°
2026-05-03 23:47 24.46094 -81.93478 3192 ft 214 kts 268°
2026-05-03 23:47 24.46229 -81.95088 3067 ft 215 kts 289°
2026-05-03 23:48 24.47174 -81.96353 2970 ft 222 kts 326°
2026-05-03 23:48 24.48660 -81.96732 2848 ft 219 kts 356°
2026-05-03 23:48 24.50169 -81.96747 2714 ft 216 kts 357°
2026-05-03 23:48 24.51667 -81.96758 2590 ft 215 kts 356°
2026-05-03 23:49 24.53136 -81.96765 2459 ft 207 kts 359°
2026-05-03 23:49 24.54484 -81.96308 2356 ft 204 kts 35°
2026-05-03 23:49 24.55318 -81.95085 2235 ft 205 kts 71°
2026-05-03 23:49 24.55429 -81.93557 2139 ft 201 kts 92°
2026-05-03 23:50 24.55428 -81.92044 2010 ft 194 kts 90°
2026-05-03 23:50 24.55438 -81.91083 1939 ft 185 kts 89°
2026-05-03 23:50 24.55463 -81.89194 1806 ft 186 kts 89°
2026-05-03 23:50 24.55481 -81.87777 1706 ft 185 kts 89°
2026-05-03 23:51 24.55499 -81.86379 1597 ft 177 kts 89°
2026-05-03 23:51 24.55514 -81.85113 1510 ft 154 kts 88°
2026-05-03 23:51 24.55527 -81.83984 1327 ft 143 kts 88°
2026-05-03 23:51 24.55540 -81.82902 1139 ft 141 kts 89°
2026-05-03 23:52 24.55551 -81.81828 957 ft 140 kts 89°
2026-05-03 23:52 24.55553 -81.81713 935 ft 140 kts 89°
2026-05-03 23:52 24.55554 -81.81610 916 ft 140 kts 88°
2026-05-03 23:52 24.55566 -81.80547 756 ft 139 kts 88°
2026-05-03 23:53 24.55561 -81.79499 562 ft 137 kts 90°
2026-05-03 23:53 24.55566 -81.78468 388 ft 132 kts 85°
2026-05-03 23:53 24.55596 -81.77451 179 ft 133 kts 86°
2026-05-03 23:53 24.55607 -81.76458 13 ft 122 kts 86°
2026-05-03 23:54 24.55615 -81.75761 13 ft 60 kts 90°
2026-05-03 23:54 24.55618 -81.75423 14 ft 33 kts 89°
2026-05-03 23:54 24.55619 -81.75278 13 ft 9 kts 90°
2026-05-03 23:54 24.55591 -81.75240 13 ft 7 kts 171°
2026-05-03 23:55 24.55546 -81.75244 13 ft 5 kts 201°
2026-05-03 23:55 24.55533 -81.75282 13 ft 6 kts 268°
2026-05-03 23:55 24.55532 -81.75332 13 ft 7 kts 268°
2026-05-03 23:55 24.55531 -81.75391 13 ft 8 kts 270°
2026-05-03 23:56 24.55530 -81.75437 13 ft 5 kts 255°
2026-05-03 23:56 24.55499 -81.75456 12 ft 6 kts 207°
2026-05-03 23:56 24.55463 -81.75460 12 ft 5 kts 179°
2026-05-03 23:56 24.55451 -81.75460 12 ft 1 kts 178°
2026-05-03 23:57 24.55441 -81.75460 12 ft 2 kts 180°
2026-05-03 23:57 24.55439 -81.75460 12 ft 0 kts 180°